Flag for Germany Weather past 2 weeks in Lünen, North Rhine-Westphalia, Germany

Now
60 °F

Passing clouds.


Feels Like: 60 °F
Forecast: 59 / 84 °F
Wind: 5 mph from West

Location: Muenster / Osnabrueck

Current Time: Jul 6, 2015 at 5:40:36 AM

Latest Report: Jul 6, 2015 at 5:00 AM


Visibility: 13 mi

Pressure: 30.10 "Hg

Humidity: 85%

Dew point: 56 °F

Location of LünenLocation

Historic Weather in Lünen — Graph

°F

Lünen temperature yesterday

Maximum temperature yesterday: 82 °F (at 4:00 PM)
Minimum temperature yesterday: 66 °F (at 8:00 PM)
Average temperature yesterday: 72 °F

Past Weeks' High & Low Weather Summary

 TemperatureHumidityPressure
High99 °F (Jul 4, 4:00 PM)97% (Jun 22, 1:00 AM)30.26 "Hg (Jun 22, 1:00 AM)
Low46 °F (Jun 23, 6:00 AM)25% (Jul 2, 5:00 PM)29.68 "Hg (Jun 22, 9:00 PM)
Average68 °F67%30.07 "Hg
* Reported Jun 21 4:00 AM — Jul 6 4:00 AM, Lünen, Weather by CustomWeather, © 2015

Note: Actual official high and low records may vary slightly from our data, if they occured in-between our weather recording intervals... More about our weather records

Advertising

Lünen weather history for previous 24 hours

 ConditionsComfort  
Time TempWeatherWind HumidityBarometerVisibility
4:00 AM
Mon, Jul 6
62 °FPassing clouds.3 mph84%30.09 "Hg16 mi
3:00 AM62 °FPassing clouds.3 mph83%30.08 "Hg16 mi
2:00 AM63 °FPassing clouds.5 mph82%30.06 "Hg16 mi
1:00 AM65 °FPassing clouds.6 mph78%30.03 "Hg16 mi
12:00 AM66 °FOvercast.3 mph80%30.03 "Hg16 mi
11:00 PM
Sun, Jul 5
66 °FOvercast.3 mph85%30.01 "Hg16 mi
10:00 PM66 °FOvercast.3 mph87%29.98 "Hg12 mi
9:00 PM66 °FThunderstorms. Overcast.2 mph84%29.98 "Hg16 mi
8:00 PM66 °FThunderstorms. Overcast.6 mph80%29.94 "Hg12 mi
7:00 PM74 °FOvercast.12 mph69%29.93 "Hg16 mi
6:00 PM81 °FPartly sunny.3 mph57%29.90 "Hg16 mi
5:00 PM79 °FOvercast.5 mph62%29.87 "Hg12 mi
4:00 PM82 °FPartly sunny.3 mph58%29.90 "Hg16 mi
3:00 PM79 °FThunderstorms. Partly sunny.2 mph68%29.93 "Hg12 mi
2:00 PM72 °FThundershowers. Overcast.3 mph87%29.95 "Hg7 mi
1:00 PM69 °FThunderstorms. Overcast.3 mph88%29.99 "Hg7 mi
12:00 PM70 °FThundershowers. Overcast.3 mph88%30.05 "Hg7 mi
11:00 AM71 °FThundershowers. Overcast.2 mph87%30.05 "Hg7 mi
10:00 AM75 °FThunderstorms. Overcast.2 mph72%30.05 "Hg7 mi
9:00 AM71 °FThunderstorms. Overcast.1 mph80%30.07 "Hg6 mi
8:00 AM71 °FOvercast.2 mph78%30.09 "Hg7 mi
7:00 AM70 °FOvercast.3 mph76%30.08 "Hg7 mi
5:00 AM69 °FPassing clouds.2 mph76%30.10 "Hg7 mi
Weather by CustomWeather, © 2015

See weather overviewHow to use our weather pages